TimeMDT,TemperatureF,Dew PointF,Humidity,Sea Level PressureIn,VisibilityMPH,Wind Direction,Wind SpeedMPH,Gust SpeedMPH,PrecipitationIn,Events,Conditions,WindDirDegrees,DateUTC
12:53 AM,53.1,35.1,50,29.93,10.0,North,3.5,-,N/A,,Mostly Cloudy,10,2013-06-02 06:53:00
1:53 AM,50.0,36.0,59,29.91,10.0,East,5.8,-,N/A,,Scattered Clouds,100,2013-06-02 07:53:00
2:53 AM,46.0,37.9,73,29.92,10.0,ESE,4.6,-,N/A,,Scattered Clouds,110,2013-06-02 08:53:00
3:53 AM,43.0,37.9,82,29.90,10.0,SSE,5.8,-,N/A,,Scattered Clouds,150,2013-06-02 09:53:00
4:53 AM,46.0,36.0,68,29.88,10.0,SSW,4.6,-,N/A,,Clear,210,2013-06-02 10:53:00
5:53 AM,45.0,36.0,71,29.88,10.0,South,8.1,-,N/A,,Clear,190,2013-06-02 11:53:00
6:53 AM,46.0,37.0,71,29.87,10.0,SSW,6.9,-,N/A,,Clear,200,2013-06-02 12:53:00
7:53 AM,45.0,37.0,74,29.88,10.0,SSW,8.1,-,N/A,,Clear,210,2013-06-02 13:53:00
8:53 AM,51.1,39.0,63,29.87,10.0,WSW,3.5,-,N/A,,Partly Cloudy,240,2013-06-02 14:53:00
9:53 AM,53.1,39.0,59,29.83,10.0,WNW,3.5,-,N/A,,Mostly Cloudy,300,2013-06-02 15:53:00
10:53 AM,55.9,37.0,49,29.79,10.0,Calm,Calm,-,N/A,,Mostly Cloudy,0,2013-06-02 16:53:00
11:53 AM,61.0,37.0,41,29.75,10.0,NE,5.8,-,N/A,,Mostly Cloudy,40,2013-06-02 17:53:00
12:53 PM,62.1,37.9,41,29.70,10.0,NNE,9.2,-,N/A,,Mostly Cloudy,30,2013-06-02 18:53:00
1:53 PM,62.1,37.9,41,29.71,10.0,NNE,3.5,-,N/A,,Overcast,30,2013-06-02 19:53:00
2:53 PM,62.1,42.1,48,29.71,10.0,NNE,16.1,-,0.00,,Overcast,30,2013-06-02 20:53:00
3:53 PM,59.0,46.0,62,29.74,10.0,NNW,16.1,-,0.00,,Overcast,330,2013-06-02 21:53:00
4:53 PM,52.0,44.1,74,29.76,10.0,NNW,19.6,-,0.00,Rain,Light Rain,340,2013-06-02 22:53:00
5:53 PM,51.1,42.1,71,29.78,10.0,North,10.4,-,0.00,Rain,Light Rain,360,2013-06-02 23:53:00
6:33 PM,48.2,42.8,82,29.87,10.0,NNE,10.4,-,0.00,Rain,Light Rain,30,2013-06-03 00:33:00
6:42 PM,48.2,44.6,87,29.87,4.0,NNE,11.5,-,0.01,Rain,Light Rain,30,2013-06-03 00:42:00
6:51 PM,46.4,44.6,93,29.87,2.5,NE,9.2,-,0.03,Rain,Rain,40,2013-06-03 00:51:00
6:53 PM,46.9,44.1,90,29.82,2.5,NE,9.2,-,0.03,Rain,Light Rain,50,2013-06-03 00:53:00
7:00 PM,46.4,44.6,93,29.88,3.0,NE,11.5,-,0.01,Rain,Light Rain,50,2013-06-03 01:00:00
7:35 PM,46.4,42.8,87,29.86,10.0,East,12.7,-,0.05,Rain,Light Rain,80,2013-06-03 01:35:00
7:53 PM,46.9,43.0,86,29.83,10.0,NE,12.7,-,0.05,,Overcast,40,2013-06-03 01:53:00
8:04 PM,46.4,42.8,87,29.88,10.0,ENE,9.2,-,N/A,,Overcast,60,2013-06-03 02:04:00
8:21 PM,46.4,42.8,87,29.89,10.0,NNE,9.2,-,N/A,,Overcast,20,2013-06-03 02:21:00
8:53 PM,46.0,43.0,89,29.85,8.0,NW,4.6,-,0.01,Rain,Light Rain,320,2013-06-03 02:53:00
9:09 PM,46.4,44.6,93,29.93,3.0,WSW,4.6,-,0.05,Rain,Rain,250,2013-06-03 03:09:00
9:21 PM,46.4,44.6,93,29.92,8.0,ESE,4.6,-,0.05,Rain,Light Rain,110,2013-06-03 03:21:00
9:53 PM,46.0,42.1,86,29.84,10.0,ESE,5.8,-,0.05,,Overcast,110,2013-06-03 03:53:00
10:53 PM,44.1,39.9,85,29.86,10.0,ESE,6.9,-,N/A,,Partly Cloudy,110,2013-06-03 04:53:00
11:53 PM,42.1,39.0,89,29.85,10.0,SSE,3.5,-,N/A,,Clear,160,2013-06-03 05:53:00